When you browse on this site, cookies collect data to enhance your experience and personalize the content and advertising you see.
Visit our Privacy Policy to learn more. By continuing to use the site, you agree to this use of cookies and data.
  • In Hungary
  • List of Countries
  • For 7 days
  • Water Temperature
  • Weather Map
  • News
  • Weather Widgets
  • user-avatar
    Login

    Hourly Weather Lipyanoy Dyuk

    Today, 21 January, Tuesday

    Time Temperature Precipitation Wind Pressure Humidity
    00:00 -2°C° 0.1 mm 5 mps 752 mmHg 94%
    01:00 -2°C° 0 mm 5 mps 751 mmHg 95%
    02:00 -2°C° 0 mm 5 mps 751 mmHg 95%
    03:00 -2°C° 0 mm 5 mps 750 mmHg 96%
    04:00 -2°C° 0 mm 5 mps 750 mmHg 94%
    05:00 -2°C° 0 mm 5 mps 749 mmHg 92%
    06:00 -4°C° 0 mm 6 mps 749 mmHg 90%
    07:00 -4°C° 0.1 mm 6 mps 748 mmHg 92%
    08:00 -4°C° 0.1 mm 6 mps 747 mmHg 93%
    09:00 -4°C° 0.1 mm 6 mps 747 mmHg 95%
    10:00 -4°C° 0.3 mm 6 mps 746 mmHg 94%
    11:00 -3°C° 0.3 mm 6 mps 745 mmHg 94%
    12:00 -3°C° 0.3 mm 7 mps 744 mmHg 94%
    13:00 -3°C° 0.6 mm 6 mps 743 mmHg 95%
    14:00 -2°C° 0.6 mm 6 mps 743 mmHg 97%
    15:00 -2°C° 0.6 mm 6 mps 742 mmHg 98%
    16:00 -2°C° 0.2 mm 6 mps 741 mmHg 98%
    17:00 -1°C° 0.2 mm 6 mps 740 mmHg 98%
    18:00 -1°C° 0.2 mm 6 mps 739 mmHg 98%
    19:00 -1°C° 0.4 mm 6 mps 738 mmHg 98%
    20:00 0°C° 0.4 mm 5 mps 738 mmHg 98%
    21:00 0°C° 0.4 mm 5 mps 737 mmHg 98%
    22:00 0°C° 1.6 mm 5 mps 736 mmHg 98%
    23:00 -1°C° 1.6 mm 6 mps 735 mmHg 98%

    Tomorrow, 22 January, Wednesday

    Time Temperature Precipitation Wind Pressure Humidity
    00:00 -1°C° 1.6 mm 6 mps 733 mmHg 98%
    01:00 -1°C° 0.6 mm 7 mps 733 mmHg 97%
    02:00 -1°C° 0.6 mm 7 mps 734 mmHg 96%
    03:00 -1°C° 0.6 mm 7 mps 734 mmHg 95%
    04:00 -1°C° 0.1 mm 7 mps 734 mmHg 91%
    05:00 -2°C° 0.1 mm 7 mps 734 mmHg 87%
    06:00 -3°C° 0.1 mm 7 mps 734 mmHg 83%
    07:00 -3°C° 0 mm 6 mps 734 mmHg 83%
    08:00 -4°C° 0 mm 6 mps 735 mmHg 83%
    09:00 -4°C° 0 mm 6 mps 735 mmHg 83%
    10:00 -4°C° 0 mm 6 mps 735 mmHg 83%
    11:00 -4°C° 0 mm 6 mps 734 mmHg 83%
    12:00 -4°C° 0 mm 6 mps 734 mmHg 83%
    13:00 -4°C° 0.1 mm 6 mps 734 mmHg 83%
    14:00 -4°C° 0.1 mm 6 mps 734 mmHg 83%
    15:00 -4°C° 0.1 mm 5 mps 733 mmHg 83%
    16:00 -4°C° 0 mm 5 mps 733 mmHg 84%
    17:00 -4°C° 0 mm 5 mps 733 mmHg 85%
    18:00 -5°C° 0 mm 5 mps 733 mmHg 86%
    19:00 -5°C° 0.1 mm 5 mps 733 mmHg 88%
    20:00 -4°C° 0.1 mm 4 mps 733 mmHg 90%
    21:00 -4°C° 0.1 mm 4 mps 733 mmHg 92%
    22:00 -4°C° 0.1 mm 4 mps 733 mmHg 90%
    23:00 -5°C° 0.1 mm 4 mps 733 mmHg 88%

    Day after tomorrow, 23 January, Thursday

    Time Temperature Precipitation Wind Pressure Humidity
    00:00 -5°C° 0.1 mm 4 mps 733 mmHg 86%
    01:00 -6°C° 0 mm 5 mps 733 mmHg 87%
    02:00 -6°C° 0 mm 5 mps 734 mmHg 87%
    03:00 -7°C° 0 mm 5 mps 734 mmHg 87%
    04:00 -7°C° 0 mm 5 mps 734 mmHg 86%
    05:00 -7°C° 0 mm 5 mps 734 mmHg 86%
    06:00 -7°C° 0 mm 5 mps 734 mmHg 85%
    07:00 -7°C° 0 mm 5 mps 735 mmHg 83%
    08:00 -7°C° 0 mm 5 mps 736 mmHg 81%
    09:00 -8°C° 0 mm 5 mps 736 mmHg 79%
    10:00 -8°C° 0 mm 5 mps 737 mmHg 78%
    11:00 -9°C° 0 mm 6 mps 737 mmHg 77%
    12:00 -9°C° 0 mm 6 mps 738 mmHg 76%
    13:00 -9°C° 0.1 mm 6 mps 739 mmHg 74%
    14:00 -9°C° 0.1 mm 6 mps 739 mmHg 72%
    15:00 -10°C° 0.1 mm 6 mps 740 mmHg 70%
    16:00 -10°C° 0 mm 5 mps 740 mmHg 71%
    17:00 -10°C° 0 mm 5 mps 741 mmHg 72%
    18:00 -10°C° 0 mm 4 mps 741 mmHg 73%
    19:00 -10°C° 0 mm 4 mps 742 mmHg 75%
    20:00 -10°C° 0 mm 4 mps 743 mmHg 76%
    21:00 -10°C° 0 mm 4 mps 743 mmHg 78%
    22:00 -10°C° 0 mm 4 mps 744 mmHg 80%
    23:00 -10°C° 0 mm 4 mps 744 mmHg 81%

    24 January, Friday

    Time Temperature Precipitation Wind Pressure Humidity
    00:00 -10°C° 0 mm 4 mps 744 mmHg 83%
    01:00 -11°C° 0 mm 4 mps 745 mmHg 84%
    02:00 -11°C° 0 mm 4 mps 745 mmHg 84%
    03:00 -11°C° 0 mm 4 mps 745 mmHg 85%
    04:00 -11°C° 0 mm 4 mps 746 mmHg 85%
    05:00 -11°C° 0 mm 4 mps 746 mmHg 85%
    06:00 -11°C° 0 mm 4 mps 746 mmHg 86%
    07:00 -11°C° 0 mm 4 mps 746 mmHg 85%
    08:00 -11°C° 0 mm 4 mps 746 mmHg 85%
    09:00 -10°C° 0 mm 4 mps 746 mmHg 84%
    10:00 -10°C° 0 mm 4 mps 746 mmHg 83%
    11:00 -9°C° 0 mm 4 mps 746 mmHg 82%
    12:00 -8°C° 0 mm 4 mps 745 mmHg 82%
    13:00 -8°C° 0.1 mm 4 mps 745 mmHg 85%
    14:00 -7°C° 0.1 mm 5 mps 744 mmHg 89%
    15:00 -7°C° 0.1 mm 5 mps 744 mmHg 92%
    16:00 -7°C° 0.1 mm 5 mps 744 mmHg 93%
    17:00 -6°C° 0.1 mm 5 mps 744 mmHg 94%
    18:00 -6°C° 0.1 mm 5 mps 743 mmHg 95%
    19:00 -6°C° 0.2 mm 5 mps 743 mmHg 95%
    20:00 -5°C° 0.2 mm 5 mps 743 mmHg 94%
    21:00 -5°C° 0.2 mm 5 mps 743 mmHg 94%
    22:00 -5°C° 0 mm 5 mps 743 mmHg 94%
    23:00 -4°C° 0 mm 5 mps 743 mmHg 94%

    25 January, Saturday

    Time Temperature Precipitation Wind Pressure Humidity
    00:00 -2°C° 0 mm 5 mps 743 mmHg 94%
    01:00 -2°C° 0 mm 4 mps 744 mmHg 94%
    02:00 -3°C° 0 mm 4 mps 744 mmHg 94%
    03:00 -3°C° 0 mm 4 mps 744 mmHg 94%
    04:00 -2°C° 0 mm 4 mps 744 mmHg 94%
    05:00 -2°C° 0 mm 4 mps 744 mmHg 95%
    06:00 -1°C° 0 mm 5 mps 744 mmHg 95%
    07:00 -1°C° 0 mm 5 mps 744 mmHg 95%
    08:00 -1°C° 0 mm 5 mps 743 mmHg 96%
    09:00 -2°C° 0 mm 6 mps 743 mmHg 97%
    10:00 -1°C° 0 mm 5 mps 743 mmHg 96%
    11:00 -1°C° 0 mm 5 mps 743 mmHg 96%
    12:00 -1°C° 0 mm 5 mps 743 mmHg 95%
    13:00 -1°C° 0 mm 5 mps 743 mmHg 96%
    14:00 -1°C° 0 mm 5 mps 743 mmHg 96%
    15:00 -2°C° 0 mm 6 mps 743 mmHg 97%
    16:00 -1°C° 0 mm 5 mps 744 mmHg 96%
    17:00 -1°C° 0 mm 5 mps 744 mmHg 95%
    18:00 -1°C° 0 mm 5 mps 744 mmHg 95%
    19:00 -2°C° 0 mm 5 mps 744 mmHg 95%
    20:00 -2°C° 0 mm 5 mps 745 mmHg 95%
    21:00 -2°C° 0 mm 4 mps 745 mmHg 96%
    22:00 -2°C° 0 mm 4 mps 745 mmHg 95%
    23:00 -2°C° 0 mm 4 mps 745 mmHg 95%

    26 January, Sunday

    Time Temperature Precipitation Wind Pressure Humidity
    00:00 -2°C° 0 mm 4 mps 745 mmHg 95%
    01:00 -2°C° 0 mm 4 mps 745 mmHg 95%
    02:00 -2°C° 0 mm 4 mps 745 mmHg 96%
    03:00 -2°C° 0 mm 4 mps 745 mmHg 96%
    04:00 -1°C° 0 mm 3 mps 745 mmHg 96%
    05:00 -1°C° 0 mm 3 mps 746 mmHg 96%
    06:00 -1°C° 0 mm 3 mps 746 mmHg 96%
    07:00 -2°C° 0 mm 3 mps 746 mmHg 97%
    08:00 -2°C° 0 mm 2 mps 746 mmHg 97%
    09:00 -2°C° 0 mm 2 mps 746 mmHg 97%
    10:00 -1°C° 0.1 mm 2 mps 746 mmHg 97%
    11:00 -1°C° 0.1 mm 2 mps 747 mmHg 98%
    12:00 -1°C° 0.1 mm 2 mps 747 mmHg 98%
    13:00 +1°C° 0 mm 1 mps 747 mmHg 98%
    14:00 +1°C° 0 mm 1 mps 747 mmHg 98%
    15:00 +1°C° 0 mm 1 mps 747 mmHg 99%
    16:00 +1°C° 0 mm 1 mps 747 mmHg 98%
    17:00 +1°C° 0 mm 1 mps 747 mmHg 98%
    18:00 +1°C° 0 mm 1 mps 747 mmHg 98%
    19:00 +1°C° 0 mm 1 mps 747 mmHg 98%
    20:00 +1°C° 0 mm 1 mps 747 mmHg 98%
    21:00 +1°C° 0 mm 1 mps 747 mmHg 98%
    22:00 +1°C° 0 mm 1 mps 747 mmHg 98%
    23:00 0°C° 0 mm 1 mps 747 mmHg 98%
    Show more